RH
84 80 84 96 94 95 96 96 96 95 95 96 96 96 95 93 92 92 92 89 91 91 90 91 92 93 94 94 93 91 87 84
82 78 78 82 87 96 95 96 96 96 96 96 97 96 95 94 93 93 91 89 91 92 91 92 92 93 94 93 92 88 88 70
84 81 73 77 74 82 96 95 95 96 95 97 98 87 91 89 88 91 92 91 92 91 91 93 93 93 92 91 92 78 67 71
70 77 77 71 57 74 82 78 83 86 86 93 87 82 81 71 79 93 94 93 92 91 92 94 97 83 92 93 87 76 73 81
58 74 74 72 62 68 70 70 74 77 80 85 86 75 78 75 80 85 93 96 89 90 94 88 80 74 76 81 73 75 75 69
19 68 71 81 66 60 68 66 72 72 73 80 81 79 82 77 80 81 87 87 84 81 82 81 77 72 73 77 73 80 88 92
31 38 72 66 67 64 62 66 68 69 72 74 77 75 78 78 77 79 77 80 78 81 74 74 74 72 68 68 72 65 64 81
23 31 48 68 76 67 73 71 70 67 69 70 76 74 76 78 80 77 76 78 76 84 74 76 74 68 71 68 65 65 64 82
24 30 40 69 69 71 61 83 61 68 72 76 74 73 75 75 78 78 77 77 80 84 82 84 82 80 76 73 68 64 64 62
26 21 32 46 68 76 64 59 66 64 70 73 80 75 72 76 78 77 78 82 79 80 83 82 81 85 78 79 71 66 65 62
39 46 48 54 63 70 68 73 64 60 69 68 74 78 79 80 74 78 79 80 84 83 84 82 84 83 80 86 83 77 74 62
52 51 50 56 52 66 75 78 68 62 60 62 70 78 78 80 77 84 86 78 83 87 87 87 83 80 65 72 75 76 80 80
56 58 58 53 52 64 73 80 79 77 58 60 67 75 81 81 81 86 82 85 80 87 94 94 94 88 89 89 91 88 87 87
63 60 61 59 58 58 74 81 79 73 62 58 62 75 83 76 83 83 81 74 86 86 89 93 88 88 93 92 94 91 88 82
66 66 68 68 67 64 80 86 86 79 74 61 63 66 80 80 79 80 82 81 77 85 86 85 96 88 90 89 93 92 79 80
70 72 73 69 70 74 85 93 93 75 71 64 60 64 72 81 80 77 83 80 78 80 86 85 86 84 94 83 87 91 85 85
76 75 76 72 76 82 93 94 92 81 68 68 63 67 68 75 80 82 83 84 82 84 86 89 84 78 88 95 86 84 89 90
83 82 78 77 79 86 94 96 96 90 93 83 69 78 76 78 82 83 80 83 86 84 87 87 88 85 84 82 84 91 86 88
89 87 84 84 86 90 92 94 96 97 96 98 97 96 96 97 89 90 88 85 82 83 87 87 87 86 85 88 82 79 78 78
95 95 91 88 89 91 91 91 94 95 97 97 97 97 94 97 97 94 92 93 90 92 87 90 90 91 89 88 87 81 80 73
Wind_Speed
10 9 8 7 7 8 8 9 10 12 13 12 11 11 11 11 10 9 8 8 9 8 8 7 6 6 6 3 4 4 4 3
9 9 8 7 7 7 8 9 9 10 11 11 12 11 10 10 10 9 9 8 8 8 8 8 7 7 5 4 4 7 5 4
10 6 10 9 9 9 9 9 10 10 9 9 8 7 8 10 9 12 9 8 8 8 9 9 8 6 6 5 4 4 4 3
11 11 7 11 9 10 9 8 7 7 9 9 7 8 8 9 10 11 11 9 9 9 9 9 8 6 4 5 3 6 4 5
9 12 11 10 10 8 7 6 6 7 10 10 8 7 7 7 5 6 5 8 5 6 5 5 7 5 6 5 6 4 3 5
10 12 11 11 8 8 10 9 9 8 9 11 9 6 6 7 6 7 7 7 7 8 6 6 7 6 6 7 3 2 1 4
12 6 9 9 13 7 8 10 10 10 10 12 9 8 6 7 7 7 8 8 7 7 7 8 6 6 7 6 6 3 5 4
15 12 5 10 11 10 5 5 7 10 10 12 13 9 7 8 7 7 7 7 7 6 6 7 5 4 4 5 4 4 3 8
13 14 11 10 12 11 10 5 9 7 6 8 16 13 9 11 9 7 7 6 8 6 6 5 4 4 6 4 3 4 4 5
12 13 14 8 12 10 11 10 8 8 8 8 8 11 11 8 9 8 7 7 6 6 5 5 5 5 4 4 4 3 4 4
22 17 18 18 13 14 12 11 9 9 10 11 14 13 10 6 6 8 9 5 5 5 5 5 5 4 5 5 4 4 4 3
23 22 16 18 13 11 14 10 9 9 9 11 14 12 15 10 7 6 5 7 6 5 6 4 5 5 7 7 7 6 4 4
25 21 22 17 14 11 11 13 11 13 12 13 14 15 17 14 7 8 8 6 9 7 4 4 3 2 1 2 3 5 5 5
22 22 20 18 14 13 11 11 13 13 13 13 16 16 16 17 11 12 12 10 5 7 7 4 5 5 3 1 3 3 5 8
18 22 22 19 20 15 11 13 13 14 16 13 11 14 18 18 18 9 11 10 11 8 10 11 7 5 7 5 2 5 4 7
19 19 21 18 20 16 15 13 13 16 16 12 12 15 15 18 16 14 11 11 12 11 10 10 8 9 4 7 5 1 2 2
18 19 18 16 17 17 10 13 13 14 15 18 17 16 16 15 14 13 10 10 12 10 13 12 10 7 6 4 9 8 6 5
17 20 16 14 16 16 11 10 12 12 4 12 16 10 10 14 16 15 14 9 12 13 11 14 11 10 7 9 8 6 10 7
17 20 18 14 16 13 11 8 11 11 1 7 13 8 6 11 12 9 7 8 10 11 9 12 12 10 12 10 9 10 6 7
21 21 20 16 14 14 11 12 9 10 16 12 11 9 6 21 21 5 6 2 6 6 7 7 11 10 14 13 8 9 6 7
Wind_Direction
131 154 153 149 158 155 153 162 163 161 155 156 155 157 164 167 168 168 170 158 145 142 143 143 143 135 142 168 281 312 299 249
135 148 167 178 178 152 160 168 167 163 156 158 159 159 169 173 170 176 176 166 154 151 151 151 148 147 154 160 267 283 270 121
145 169 173 185 192 176 171 173 170 159 155 155 153 181 176 173 192 169 176 169 160 157 158 157 148 157 169 191 233 255 256 134
163 165 199 184 203 172 182 186 186 186 178 174 188 198 176 187 185 165 167 166 164 164 165 163 173 169 186 200 225 245 207 111
173 177 182 197 206 171 178 188 189 191 187 177 200 205 186 195 163 164 161 166 169 166 162 195 204 216 163 201 222 186 231 136
317 183 185 181 219 193 183 188 186 187 194 186 186 201 195 185 163 172 172 171 195 178 180 201 219 221 171 211 294 121 160 95
320 308 203 201 200 241 194 192 181 189 188 190 185 200 197 186 182 177 181 174 194 176 187 195 211 213 178 207 206 222 146 131
307 310 290 208 213 229 242 193 182 190 186 185 191 191 200 189 196 187 184 179 185 177 197 182 184 166 228 225 233 216 219 150
301 301 294 225 206 218 227 222 200 196 192 181 188 192 207 191 190 194 190 195 175 178 183 171 183 174 190 211 233 238 190 172
317 311 302 304 242 209 219 222 203 200 195 197 194 203 202 199 184 191 189 198 185 182 187 179 189 182 169 196 192 251 253 229
330 330 332 331 343 284 210 228 219 211 188 199 199 200 214 220 199 187 188 194 183 184 192 189 177 178 183 179 195 222 222 206
334 332 322 325 322 332 258 222 224 220 211 198 189 191 204 218 195 178 181 193 200 180 195 203 186 185 187 190 194 195 196 207
327 326 329 330 324 316 310 237 219 235 208 208 189 187 190 209 194 181 196 215 196 183 149 182 241 215 232 175 195 202 203 208
322 319 322 314 314 319 308 300 233 218 220 212 196 176 185 199 209 186 188 209 219 165 175 179 209 205 190 136 224 243 211 210
323 316 314 310 308 304 314 301 285 221 218 206 197 189 180 191 201 186 177 187 206 193 189 194 192 203 210 166 194 228 192 199
323 317 308 309 305 302 301 297 282 242 213 199 202 198 179 181 186 196 182 183 200 201 194 200 186 200 197 234 270 347 292 23
322 317 304 309 314 303 299 288 271 258 218 197 198 195 197 173 170 187 211 181 194 202 191 196 202 202 191 164 229 252 235 215
331 323 315 318 318 300 293 313 304 268 324 255 185 173 181 178 179 182 200 203 195 206 179 191 201 201 194 203 205 185 219 207
337 332 324 329 324 317 312 12 26 19 18 35 34 39 57 356 177 168 188 198 216 187 182 185 201 191 220 207 223 227 204 221
343 337 328 330 337 322 329 42 51 52 49 38 34 17 296 31 341 26 159 217 242 183 196 189 195 206 210 223 227 231 227 216